Weather History for Scilly, United Kingdom

Change the Weather History Date:

Monday, November 5, 2012

  Actual Average Record
Temperature  
Mean Temperature 50 °F -  
Max Temperature 52 °F 50 °F 59 °F (2007)
Min Temperature 47 °F 48 °F 47 °F (2012)
Degree Days  
Heating Degree Days 16    
Moisture  
Dew Point 42 °F    
Average Humidity 72    
Maximum Humidity 86    
Minimum Humidity 57    
Precipitation  
Precipitation 0.08 in - - ()
Sea Level Pressure  
Sea Level Pressure 29.80 in    
Wind  
Wind Speed 22 mph ()    
Max Wind Speed 31 mph    
Max Gust Speed 43 mph    
Visibility 6.9 miles    
Events Rain    
Averages and records for this station are not official NWS values.
T = Trace of Precipitation, MM = Missing Value Source: Averaged Metar Reports

Daily Weather History Graph

Daily Weather History Graph

Search for Another Location

Airport:

Trip Planner

Search our weather history database for the weather conditions in past years. The results will help you decide how hot, cold, wet, or windy it might be!

Date:

Astronomy

Nov. 05, 2012 Rise Set
Actual Time 7:21 AM GMT 4:55 PM GMT
Civil Twilight 6:47 AM GMT 5:29 PM GMT
Nautical Twilight 6:08 AM GMT 6:07 PM GMT
Astronomical Twilight 5:31 AM GMT 6:45 PM GMT
Moon 10:18 PM GMT (11/5) 12:35 PM GMT (11/5)
Length of Visible Light 10h 42m
Length of Day
9h 33m
Waning Gibbous, 65% of the Moon is Illuminated
Nov 5
Waning Gibbous
Nov 7
Last Quarter
Nov 13
New
Nov 20
First Quarter
Nov 28
Full

Hourly Weather History & Observations

Time (GMT) Temp. Dew Point Humidity Pressure Visibility Wind Dir Wind Speed Gust Speed Precip Events Conditions
2:50 AM 48 °F 43 °F 75% 29.45 in 13 mi NW 24.2 mph - - Rain Light Rain Showers
5:50 AM 47 °F 44 °F 86% 29.47 in 5 mi NW 29.9 mph - - Rain Light Rain
8:50 AM 49 °F 45 °F 80% 29.60 in 4 mi NNE 31.1 mph - - Rain Light Rain
8:50 AM 50.0 °F 44.6 °F 82% 29.56 in 6.2 mi NNE 28.8 mph 42.6 mph N/A Rain Light Rain Showers
9:20 AM 50.0 °F 44.6 °F 82% 29.62 in 6.2 mi NNE 28.8 mph 42.6 mph N/A   Mostly Cloudy
9:50 AM 50.0 °F 44.6 °F 82% 29.65 in 6.2 mi NE 26.5 mph 38.0 mph N/A   Scattered Clouds
10:20 AM 50.0 °F 44.6 °F 82% 29.71 in 6.2 mi NNE 24.2 mph 36.8 mph N/A   Scattered Clouds
10:50 AM 50.0 °F 42.8 °F 76% 29.71 in 6.2 mi NNE 29.9 mph - N/A   Scattered Clouds
11:20 AM 50.0 °F 42.8 °F 76% 29.74 in 6.2 mi NNE 27.6 mph 39.1 mph N/A   Scattered Clouds
11:50 AM 51 °F 43 °F 65% 29.79 in 17 mi NNE 25.3 mph - -  
11:50 AM 51.8 °F 42.8 °F 71% 29.77 in 6.2 mi NNE 21.9 mph 33.4 mph N/A   Partly Cloudy
12:20 PM 51.8 °F 42.8 °F 71% 29.80 in 6.2 mi NNE 25.3 mph 36.8 mph N/A   Partly Cloudy
12:50 PM 50.0 °F 42.8 °F 76% 29.80 in 6.2 mi NNE 24.2 mph - N/A   Partly Cloudy
1:20 PM 51.8 °F 44.6 °F 76% 29.83 in 6.2 mi NNE 21.9 mph - N/A   Scattered Clouds
1:50 PM 50.0 °F 42.8 °F 76% 29.86 in 6.2 mi NNE 24.2 mph - N/A   Partly Cloudy
2:20 PM 51.8 °F 41.0 °F 67% 29.89 in 6.2 mi NNE 21.9 mph - N/A   Partly Cloudy
2:50 PM 51 °F 40 °F 57% 29.91 in 28 mi NNE 20.7 mph - -   Scattered Clouds
2:50 PM 50.0 °F 41.0 °F 71% 29.89 in 6.2 mi NNE 21.9 mph - N/A   Partly Cloudy
3:20 PM 50.0 °F 41.0 °F 71% 29.92 in 6.2 mi North 19.6 mph - N/A   Partly Cloudy
3:50 PM 50.0 °F 37.4 °F 62% 29.92 in 6.2 mi North 18.4 mph - N/A   Partly Cloudy
4:20 PM 50.0 °F 39.2 °F 66% 29.95 in 6.2 mi NNE 17.3 mph - N/A   Partly Cloudy
4:50 PM 50.0 °F 39.2 °F 66% 29.98 in 6.2 mi North 16.1 mph - N/A   Partly Cloudy
5:50 PM 50 °F 42 °F 64% 30.01 in 31 mi North 11.5 mph - -   Scattered Clouds
8:50 PM 50 °F 41 °F 63% 30.10 in 31 mi North 13.8 mph - -   Scattered Clouds
11:50 PM 50 °F 41 °F 63% 30.15 in 31 mi NNW 16.1 mph - -   Scattered Clouds